04:25
Airports
History
Links
Donate
Help keep this website running!
PayPal
Bitcoin
This page is community maintained. The information is intended for PC simulator navigation or reference.
Always use approved charts for navigation.
A36
HADLEY
HADLEY (A36)
Round Mountain, Nevada, United States (89045)
(U)
Lat/Lng:38° 41' 38" N / 117° 8' 48.01" W
38.693889 / -117.146669
Elevation:5744'ft / 1751mMSL
ID / ICAO:A36
Runways:1
Longest:17-35
Asphalt 2,044m / 6,706ft
Nearby Weather03:56 GMT 2017-11-21
Nearby weather at KTPH, Tonopah located 43.9 nautical miles from A36
Altimeter: 30.22
Visibility: 10.0 statute miles
Wind: 4 knots (from 340°)
Temp: 8°c / 46°f
Humidity: 24.6%

METAR: KTPH 210356Z AUTO 34004KT 10SM OVC110 08/M11 A3022 RMK AO2 SLP228 T00781106

(Powered by phpweather)
Airport Radio Frequencies
CTAF: 122.9
Nearby VORs <50NM
Nearby NDBs
Runway 17 / 35
Dimensions:2043.9 x 18.3m 6706' x 60'ft
Surface:Asphalt
Runway 17 [A]Runway 35 [B]
Heading:180°TH 000°TH
Lat:
Lng:
38° 42' 11"N
117° 8' 48.01"W
38° 41' 5"N
117° 8' 48.01"W
User Notes and Comments
38° 41' 38" N / 117° 8' 48.01" W
Distance To
Airport ID:
Nearby Airports
4 Wine Glass Ranch 7.4 NM
NV56 NNW 348°
(R) Barker Creek Ranch Airstrip 9.9 NM
NV31 NE 38°
4 O Toole Ranch 29.7 NM
NV02 NNW 330°
(U) Tonopah 43.9 NM
KTPH ( WX ) S 175°
4 Gabbs 46.5 NM
KGAB WNW 289°
(U) AUSTIN 53.4 NM
9U3 N 357°
4 Mina 55.7 NM
3Q0 WSW 247°
VFR Chart
Flight Planning at SkyVector.com